Regional Weather Roundup
Issued by NWS

Home | Current Version | Previous Version | Graphics & Text | Print | Product List | Glossary On
Versions: 1 2 3 4 5 6 7 8 9 10 11 12 13 14 15 16 17 18 19 20 21 22 23 24 25 26 27 28 29 30 31 32 33 34 35 36 37 38 39 40 41 42 43 44 45 46 47 48 49 50
000
ASUS45 KCYS 301410
RWRWY

WYOMING REGIONAL WEATHER ROUNDUP
NATIONAL WEATHER SERVICE CHEYENNE WY
800 AM MDT SUN AUG 30 2015

NOTE:  "FAIR" INDICATES FEW OR NO CLOUDS BELOW 12,000 FEET
WITH NO SIGNIFICANT WEATHER AND/OR OBSTRUCTIONS TO VISIBILITY.

WYZ001-301500-
YELLOWSTONE NATIONAL PARK

CITY           SKY/WX    TMP DP  RH WIND       PRES   REMARKS
LK YELLOWSTONE   N/A     48  47  96 CALM      30.18R
W YELLOWSTONE  NOT AVBL

$$
WYZ002>013-054>058-071-098>099-301500-
NORTHERN WYOMING

CITY           SKY/WX    TMP DP  RH WIND       PRES   REMARKS
JACKSON        MOSUNNY   55  52  88 CALM      30.10S
CODY           FAIR      68  46  45 S13       29.92S
GREYBULL       FAIR      69  45  41 CALM      29.86R
WORLAND        FAIR      65  47  52 SW7       29.90R
SHERIDAN       FAIR      68  45  43 S5        29.83F
BUFFALO        FAIR      72  40  31 CALM      29.93R
GILLETTE       FAIR      77  36  22 SW13G24   29.89R
HULETT         FAIR      79  37  22 SW14G20   29.88S
NEWCASTLE      FAIR      70  41  35 SE7       29.93F

$$
WYZ014>020-022>026-101>103-301500-
CENTRAL WYOMING

CITY           SKY/WX    TMP DP  RH WIND       PRES   REMARKS
BIG PINEY      PTSUNNY   56  40  55 N9        30.17R
PINEDALE       FAIR      55  39  54 CALM      30.18R
DUBOIS         FAIR      55  45  67 NW13      30.12S
LANDER         FAIR      68  43  40 N9        30.00R
RIVERTON       FAIR      67  41  38 W5        30.00S
CASPER         FAIR      76  30  18 SW17G26   30.01R
DOUGLAS        FAIR      60  41  49 SE6       30.00S

$$
WYZ021-027>030-104>119-301500-
SOUTHERN WYOMING

CITY           SKY/WX    TMP DP  RH WIND       PRES   REMARKS
EVANSTON       FAIR      67  42  40 SW10      30.17R
KEMMERER       FAIR      61  39  44 W7        30.18R
FORT BRIDGER   MOSUNNY   66  43  42 W8        30.19R
ROCK SPRINGS   FAIR      69  35  28 S7        30.14R
DIXON          FAIR      54  37  52 S6        30.22R
RAWLINS        FAIR      69  30  23 S3        30.17R
SARATOGA       FAIR      61  36  39 SE5       30.22S
LARAMIE        FAIR      59  37  44 SW12      30.23S
CHEYENNE       FAIR      68  40  35 W9        30.14S
TORRINGTON     FAIR      64  44  48 E3        29.98R
PINE BLUFFS    FAIR      63  41  45 W3        30.08F

$$



USA.gov is the U.S. government's official web portal to all federal, state and local government web resources and services.